EW0761 High Bridge NJ US current weather conditions

sailwx.info

Wind from 315 at 1 knots gusting 5

Air temperature 2.8° C
Dewpoint -4.0° C

Last reported at 2020-Jan-28 21:05 UTC.
Time now 2020-Jan-28 22:03 UTC

Location: N 40°40' W 074°53'.
View on Google Maps.

See reports from other nearby stations

  
Tides and Currents Weather Stations Pressure Air Temp Water Temp Dewpoint Dewpoint Depression Visibility Wind Speed Wind Dir Waves Ship Positions
date/time (UTC)wind fromknots sea level pressurealtimeterstation pressurevisibilityair tempwater tempwave heightnotes
2020-Jan-28 21:05 315 1 gusting 5 2.8
2020-Jan-28 20:55 315 3 gusting 7 3.3
2020-Jan-28 20:45 315 1 gusting 6 3.3
2020-Jan-28 20:35 270 2 gusting 5 3.3
2020-Jan-28 20:25 3.3
2020-Jan-28 20:15 338 2 gusting 5 2.8
2020-Jan-28 20:05 270 2 gusting 6 2.8
2020-Jan-28 19:55 315 3 gusting 7 2.8
2020-Jan-28 19:45 293 2 gusting 6 2.8
2020-Jan-28 19:35 270 3 gusting 7 2.8
2020-Jan-28 19:25 270 2 gusting 9 2.8
2020-Jan-28 19:15 293 1 gusting 6 2.8
2020-Jan-28 19:05 315 2 gusting 7 2.8
2020-Jan-28 18:55 270 3 gusting 7 2.8
2020-Jan-28 18:45 293 2 gusting 6 2.8
2020-Jan-28 18:35 315 1 gusting 6 2.8
2020-Jan-28 18:25 315 1 gusting 4 2.8
2020-Jan-28 18:15 315 2 gusting 7 2.8
2020-Jan-28 18:05 293 2 gusting 6 2.8
2020-Jan-28 17:55 270 2 gusting 12 2.8
2020-Jan-28 17:45 270 2 gusting 6 2.8
2020-Jan-28 17:35 270 3 gusting 8 2.8
2020-Jan-28 17:25 338 1 gusting 4 3.3
2020-Jan-28 17:15 270 2 gusting 10 3.3
2020-Jan-28 17:05 293 1 gusting 6 3.3
2020-Jan-28 16:55 315 1 gusting 4 3.3
2020-Jan-28 16:45 270 3 gusting 7 3.3
2020-Jan-28 16:35 315 3 gusting 8 3.3
2020-Jan-28 16:25 270 2 gusting 7 3.3
2020-Jan-28 16:15 315 4 gusting 10 3.3
2020-Jan-28 16:05 315 2 gusting 6 3.3
2020-Jan-28 15:55 270 2 gusting 6 3.3
2020-Jan-28 15:45 270 2 gusting 7 3.3
2020-Jan-28 15:35 270 4 gusting 13 3.3
2020-Jan-28 15:25 270 3 gusting 8 3.9
2020-Jan-28 15:15 270 3 gusting 9 3.9
2020-Jan-28 15:05 270 3 gusting 10 3.9
2020-Jan-28 14:55 270 3 gusting 7 3.3
2020-Jan-28 14:45 315 2 gusting 7 3.3
2020-Jan-28 14:35 338 3 gusting 8 3.3
2020-Jan-28 14:25 248 4 gusting 9 3.3
2020-Jan-28 14:15 315 2 gusting 7 2.8
2020-Jan-28 14:05 270 2 gusting 8 2.8
2020-Jan-28 13:55 270 2 gusting 7 2.2
2020-Jan-28 13:45 338 2 gusting 7 2.2
2020-Jan-28 13:35 270 2 gusting 6 1.7
2020-Jan-28 13:25 270 2 gusting 6 1.7
2020-Jan-28 13:15 293 1 gusting 3 1.1
2020-Jan-28 13:05 270 1 gusting 6 1.1
2020-Jan-28 12:55 248 1 gusting 6 1.1
2020-Jan-28 12:45 293 1 gusting 3 1.1
2020-Jan-28 12:35 293 2 gusting 6 1.1
2020-Jan-28 12:25 315 2 gusting 5 0.6
2020-Jan-28 12:15 270 1 gusting 4 0.6
2020-Jan-28 12:05 293 1 gusting 3 0.6
2020-Jan-28 11:55 293 1 gusting 4 1.1
2020-Jan-28 11:45 248 1 gusting 4 1.1
2020-Jan-28 11:35 293 0 gusting 2 1.1
2020-Jan-28 11:25 293 0 gusting 2 1.1
2020-Jan-28 11:15 293 0 gusting 2 1.1
2020-Jan-28 11:05 315 1 gusting 6 1.1
2020-Jan-28 10:55 293 1 gusting 3 1.7
2020-Jan-28 10:45 270 1 gusting 4 1.7
2020-Jan-28 10:35 315 0 gusting 3 1.7
2020-Jan-28 10:25 293 1 gusting 4 1.7
2020-Jan-28 10:15 293 1 gusting 3 1.7
2020-Jan-28 10:05 315 0 gusting 2 1.7
2020-Jan-28 09:55 270 1 gusting 6 1.7
2020-Jan-28 09:45 270 2 gusting 6 1.7
2020-Jan-28 09:35 293 2 gusting 8 1.7
2020-Jan-28 09:25 293 1 gusting 5 1.7
2020-Jan-28 09:15 293 2 gusting 6 1.7
2020-Jan-28 09:05 270 1 gusting 5 1.7
2020-Jan-28 08:55 270 2 gusting 6 1.7
2020-Jan-28 08:45 270 1 gusting 6 1.7
2020-Jan-28 08:35 293 1 gusting 5 1.7
2020-Jan-28 08:25 315 0 gusting 3 1.7
2020-Jan-28 08:15 270 0 gusting 2 1.7
2020-Jan-28 08:05 270 1 gusting 4 1.7
2020-Jan-28 07:55 315 1 gusting 3 2.2
2020-Jan-28 07:45 293 2 gusting 6 2.2
2020-Jan-28 07:35 248 2 gusting 7 2.2
2020-Jan-28 07:25 315 1 gusting 4 1.7
2020-Jan-28 07:15 315 0 gusting 2 1.7
2020-Jan-28 07:05 293 0 gusting 1 1.7
2020-Jan-28 06:55 293 0 gusting 1 2.2
2020-Jan-28 06:45 293 0 gusting 2 2.2
2020-Jan-28 06:35 270 0 gusting 2 2.2
2020-Jan-28 06:25 270 0 gusting 3 2.2
2020-Jan-28 06:15 315 1 gusting 3 2.2
2020-Jan-28 06:05 293 1 gusting 6 2.2
2020-Jan-28 05:55 2.2
2020-Jan-28 05:45 315 3 gusting 9 2.2
2020-Jan-28 05:35 293 0 gusting 2 2.8
2020-Jan-28 05:25 293 0 gusting 1 2.8
2020-Jan-28 05:15 293 1 gusting 4 2.8
2020-Jan-28 05:05 270 0 gusting 3 2.8
2020-Jan-28 04:55 293 1 gusting 5 2.8
2020-Jan-28 04:45 315 0 gusting 1 2.8
2020-Jan-28 04:35 315 0 gusting 1 2.8
2020-Jan-28 04:25 270 0 gusting 2 2.8
2020-Jan-28 04:15 338 0 gusting 2 2.8
2020-Jan-28 04:05 315 0 gusting 2 2.8
2020-Jan-28 03:55 293 0 gusting 2 3.3
2020-Jan-28 03:45 315 0 gusting 2 3.3
2020-Jan-28 03:35 315 0 gusting 2 3.3
2020-Jan-28 03:25 315 0 gusting 1 3.3
2020-Jan-28 03:15 270 2 gusting 6 3.3
2020-Jan-28 03:05 315 0 gusting 3 3.3
2020-Jan-28 02:55 270 1 gusting 3 3.3
2020-Jan-28 02:45 293 2 gusting 7 3.3
2020-Jan-28 02:35 270 1 gusting 5 3.9
2020-Jan-28 02:25 315 1 gusting 6 3.9
2020-Jan-28 02:15 270 0 gusting 2 3.9
2020-Jan-28 02:05 315 0 gusting 2 3.9
2020-Jan-28 01:55 293 0 gusting 1 3.9
2020-Jan-28 01:45 293 0 gusting 2 3.9
2020-Jan-28 01:35 270 0 gusting 2 3.9
2020-Jan-28 01:25 248 1 gusting 3 3.9
2020-Jan-28 01:15 293 1 gusting 3 3.9
2020-Jan-28 01:05 315 1 gusting 3 3.9
2020-Jan-28 00:55 293 1 gusting 3 3.9
2020-Jan-28 00:45 270 1 gusting 5 3.9
2020-Jan-28 00:35 338 1 gusting 4 3.9
2020-Jan-28 00:25 293 1 gusting 5 3.9
2020-Jan-28 00:15 270 1 gusting 3 3.9
2020-Jan-28 00:05 315 1 gusting 5 4.4
2020-Jan-27 23:55 270 2 gusting 6 4.4
2020-Jan-27 23:45 293 2 gusting 5 4.4
2020-Jan-27 23:35 293 1 gusting 3 4.4
2020-Jan-27 23:25 270 1 gusting 5 4.4
2020-Jan-27 23:15 270 0 gusting 3 4.4
2020-Jan-27 23:05 293 1 gusting 3 4.4
2020-Jan-27 22:55 270 1 gusting 3 4.4
2020-Jan-27 22:45 248 1 gusting 5 4.4
2020-Jan-27 22:35 270 1 gusting 3 4.4
2020-Jan-27 22:25 270 1 gusting 6 4.4
2020-Jan-27 22:15 270 2 gusting 6 5.0
2020-Jan-27 22:05 270 1 gusting 5 5.0
2020-Jan-27 21:55 315 1 gusting 6 5.0
2020-Jan-27 21:45 248 2 gusting 5 5.0
2020-Jan-27 21:35 270 1 gusting 3 5.0
2020-Jan-27 21:25 315 2 gusting 7 5.0
2020-Jan-27 21:15 315 1 gusting 4 5.0
2020-Jan-27 21:05 293 1 gusting 6 5.0
2020-Jan-27 20:55 270 2 gusting 6 5.0
2020-Jan-27 20:45 248 1 gusting 3 5.0
2020-Jan-27 20:35 270 1 gusting 5 5.0
2020-Jan-27 20:25 270 3 gusting 6 5.0
2020-Jan-27 20:15 225 2 gusting 6 5.0
2020-Jan-27 20:05 270 2 gusting 7 5.6
2020-Jan-27 19:55 270 2 gusting 7 5.6
2020-Jan-27 19:45 270 1 gusting 4 5.6
2020-Jan-27 19:35 293 3 gusting 7 5.6
2020-Jan-27 19:25 248 2 gusting 6 5.6
2020-Jan-27 19:15 270 3 gusting 10 5.6
2020-Jan-27 19:05 270 1 gusting 6 5.6
2020-Jan-27 18:55 293 2 gusting 8 5.6
2020-Jan-27 18:45 293 1 gusting 7 5.6
2020-Jan-27 18:35 248 2 gusting 6 5.0
2020-Jan-27 18:25 293 2 gusting 6 5.0
2020-Jan-27 18:15 270 3 gusting 9 5.0
2020-Jan-27 18:05 248 3 gusting 6 5.0
2020-Jan-27 17:55 315 3 gusting 9 5.6
2020-Jan-27 17:45 293 3 gusting 12 5.6
2020-Jan-27 17:35 270 4 gusting 9 5.6
2020-Jan-27 17:25 270 3 gusting 6 5.0
2020-Jan-27 17:15 270 2 gusting 7 5.0
2020-Jan-27 17:05 270 2 gusting 7 5.0
2020-Jan-27 16:55 248 2 gusting 5 5.0
2020-Jan-27 16:45 248 3 gusting 7 5.0
2020-Jan-27 16:35 270 2 gusting 6 5.0
2020-Jan-27 16:25 270 4 gusting 9 5.0
2020-Jan-27 16:15 270 2 gusting 6 4.4
2020-Jan-27 16:05 270 3 gusting 8 4.4
2020-Jan-27 15:55 270 3 gusting 8 4.4
2020-Jan-27 15:45 270 4 gusting 11 5.0
2020-Jan-27 15:35 248 4 gusting 10 5.0
2020-Jan-27 15:25 270 3 gusting 6 4.4
2020-Jan-27 15:15 270 3 gusting 9 3.9
2020-Jan-27 15:05 270 3 gusting 9 3.9
2020-Jan-27 14:55 225 2 gusting 7 3.3
2020-Jan-27 14:45 225 2 gusting 4 3.3
2020-Jan-27 14:35 315 2 gusting 7 3.3
2020-Jan-27 14:25 270 3 gusting 7 3.3
2020-Jan-27 14:15 270 1 gusting 5 3.3
2020-Jan-27 14:05 270 2 gusting 5 2.8
2020-Jan-27 13:55 270 3 gusting 7 2.8
2020-Jan-27 13:45 270 2 gusting 6 2.8
2020-Jan-27 13:35 270 1 gusting 6 2.8
2020-Jan-27 13:25 248 3 gusting 7 2.8
2020-Jan-27 13:15 270 2 gusting 7 2.8
2020-Jan-27 13:05 270 2 gusting 7 2.8
2020-Jan-27 12:55 248 2 gusting 6 2.8
2020-Jan-27 12:45 270 2 gusting 8 2.2
2020-Jan-27 12:35 248 3 gusting 8 2.2
2020-Jan-27 12:25 248 2 gusting 6 2.2
2020-Jan-27 12:15 270 2 gusting 6 2.2
2020-Jan-27 12:05 248 1 gusting 3 1.7
2020-Jan-27 11:55 270 0 gusting 5 1.7
2020-Jan-27 11:45 270 0 gusting 2 1.7
2020-Jan-27 11:35 225 0 gusting 2 1.7
2020-Jan-27 11:25 248 0 gusting 2 1.7
2020-Jan-27 11:15 270 1 gusting 3 1.7
2020-Jan-27 11:05 270 1 gusting 3 1.1
2020-Jan-27 10:55 248 0 gusting 1 1.1
2020-Jan-27 10:45 248 0 gusting 2 1.1
2020-Jan-27 10:35 180 0 gusting 1 1.1
2020-Jan-27 10:25 1.1
2020-Jan-27 10:15 1.1
2020-Jan-27 10:05 1.1
2020-Jan-27 09:55 270 0 gusting 1 1.1
2020-Jan-27 09:45 1.1
2020-Jan-27 09:35 1.1
2020-Jan-27 09:25 1.1
2020-Jan-27 09:15 1.1
2020-Jan-27 09:05 1.1
2020-Jan-27 08:55 338 0 gusting 2 1.1
2020-Jan-27 08:45 270 0 gusting 3 1.1
2020-Jan-27 08:35 270 0 gusting 2 1.1
2020-Jan-27 08:25 1.1
2020-Jan-27 08:15 270 0 gusting 1 1.1
2020-Jan-27 08:05 248 0 gusting 1 1.1
2020-Jan-27 07:55 248 1 gusting 3 1.1
2020-Jan-27 07:45 270 0 gusting 2 1.1
2020-Jan-27 07:35 248 0 gusting 1 1.7
2020-Jan-27 07:25 248 0 gusting 3 1.1
2020-Jan-27 07:15 270 0 gusting 2 1.1
2020-Jan-27 07:05 270 0 gusting 2 1.1
2020-Jan-27 06:55 270 0 gusting 1 1.1
2020-Jan-27 06:45 270 0 gusting 1 1.1
2020-Jan-27 06:35 248 0 gusting 2 1.1
2020-Jan-27 06:25 248 0 gusting 2 1.1
2020-Jan-27 06:15 270 0 gusting 2 1.7
2020-Jan-27 06:05 248 0 gusting 1 1.7
2020-Jan-27 05:55 270 0 gusting 1 1.7
2020-Jan-27 05:45 225 0 gusting 3 1.7
2020-Jan-27 05:35 270 0 gusting 2 1.7
2020-Jan-27 05:25 270 0 gusting 2 1.7
2020-Jan-27 05:15 270 0 gusting 1 1.7
2020-Jan-27 05:05 270 0 gusting 2 2.2
2020-Jan-27 04:55 270 1 gusting 3 2.2
2020-Jan-27 04:45 248 0 gusting 2 2.2
2020-Jan-27 04:35 293 0 gusting 2 2.2
2020-Jan-27 04:25 270 1 gusting 3 2.2
2020-Jan-27 04:15 293 1 gusting 2 2.2
2020-Jan-27 04:05 248 1 gusting 5 2.8
2020-Jan-27 03:55 270 1 gusting 3 2.8
2020-Jan-27 03:45 293 1 gusting 4 2.8
2020-Jan-27 03:35 270 1 gusting 3 2.8
2020-Jan-27 03:25 270 1 gusting 6 2.8
2020-Jan-27 03:15 270 1 gusting 4 2.8
2020-Jan-27 03:05 270 3 gusting 7 2.8
2020-Jan-27 02:55 270 1 gusting 6 2.8
2020-Jan-27 02:45 2.8
2020-Jan-27 02:35 248 0 gusting 2 2.8
2020-Jan-27 02:25 270 0 gusting 3 2.8
2020-Jan-27 02:15 270 1 gusting 5 2.8
2020-Jan-27 02:05 2.8
2020-Jan-27 01:55 315 0 gusting 2 2.8
2020-Jan-27 01:45 248 1 gusting 4 2.8
2020-Jan-27 01:35 293 1 gusting 3 2.8
2020-Jan-27 01:25 270 1 gusting 4 2.8
2020-Jan-27 01:15 203 0 gusting 2 2.8
2020-Jan-27 01:05 270 0 gusting 2 2.8
2020-Jan-27 00:55 270 0 gusting 3 2.8
2020-Jan-27 00:45 270 1 gusting 5 3.3
2020-Jan-27 00:35 248 1 gusting 6 3.3
2020-Jan-27 00:25 248 2 gusting 6 3.3
2020-Jan-27 00:15 248 3 gusting 8 3.3
2020-Jan-27 00:05 293 1 gusting 3 3.3
2020-Jan-26 23:55 248 2 gusting 6 3.3
2020-Jan-26 23:45 270 1 gusting 4 3.3
2020-Jan-26 23:35 315 1 gusting 6 3.3
2020-Jan-26 23:25 248 1 gusting 3 3.3
2020-Jan-26 23:15 270 1 gusting 5 3.9
2020-Jan-26 23:05 270 2 gusting 5 3.9
2020-Jan-26 22:55 270 1 gusting 6 3.9
2020-Jan-26 22:45 248 1 gusting 6 3.9
2020-Jan-26 22:35 270 2 gusting 6 4.4
2020-Jan-26 22:25 270 2 gusting 6 4.4
2020-Jan-26 22:15 270 3 gusting 7 4.4
2020-Jan-26 22:05 270 2 gusting 4 5.0